• In Uzbekistan
  • List of Countries
  • For 7 days
  • Water Temperature
  • Satellite Maps
  • Weather Map
  • Weather Widgets
  • user-avatar
    Login

    Hourly Weather Vanadzor

    Today, 28 May, Monday

    Time Temperature Precipitation Wind Pressure Humidity
    00:00 +12°C° 0.3 mm 2 mps 640 mmHg 96%
    01:00 +12°C° 0.1 mm 1 mps 640 mmHg 96%
    02:00 +12°C° 0.1 mm 1 mps 640 mmHg 96%
    03:00 +11°C° 0.1 mm 1 mps 640 mmHg 96%
    04:00 +12°C° 0 mm 1 mps 640 mmHg 94%
    05:00 +12°C° 0 mm 1 mps 640 mmHg 93%
    06:00 +11°C° 0 mm 0 mps 640 mmHg 91%
    07:00 +15°C° 0 mm 1 mps 640 mmHg 82%
    08:00 +18°C° 0 mm 1 mps 640 mmHg 74%
    09:00 +20°C° 0 mm 1 mps 640 mmHg 65%
    10:00 +21°C° 0.1 mm 1 mps 640 mmHg 61%
    11:00 +22°C° 0.1 mm 1 mps 640 mmHg 58%
    12:00 +24°C° 0.1 mm 2 mps 640 mmHg 54%
    13:00 +24°C° 0.2 mm 1 mps 640 mmHg 54%
    14:00 +24°C° 0.2 mm 1 mps 639 mmHg 53%
    15:00 +24°C° 0.2 mm 1 mps 639 mmHg 53%
    16:00 +23°C° 0.3 mm 1 mps 639 mmHg 59%
    17:00 +23°C° 0.3 mm 1 mps 638 mmHg 65%
    18:00 +22°C° 0.3 mm 1 mps 638 mmHg 71%
    19:00 +20°C° 0.2 mm 1 mps 637 mmHg 76%
    20:00 +17°C° 0.2 mm 2 mps 637 mmHg 81%
    21:00 +15°C° 0.2 mm 2 mps 637 mmHg 86%
    22:00 +14°C° 0 mm 2 mps 637 mmHg 86%
    23:00 +14°C° 0 mm 2 mps 637 mmHg 86%

    Tomorrow, 29 May, Tuesday

    Time Temperature Precipitation Wind Pressure Humidity
    00:00 +14°C° 0 mm 1 mps 636 mmHg 86%
    01:00 +13°C° 0 mm 1 mps 636 mmHg 86%
    02:00 +13°C° 0 mm 1 mps 636 mmHg 86%
    03:00 +13°C° 0 mm 1 mps 636 mmHg 85%
    04:00 +13°C° 0 mm 1 mps 636 mmHg 85%
    05:00 +14°C° 0 mm 1 mps 636 mmHg 84%
    06:00 +14°C° 0 mm 1 mps 636 mmHg 84%
    07:00 +15°C° 0.1 mm 2 mps 636 mmHg 80%
    08:00 +16°C° 0.1 mm 2 mps 636 mmHg 76%
    09:00 +17°C° 0.1 mm 2 mps 636 mmHg 72%
    10:00 +17°C° 0.5 mm 2 mps 636 mmHg 76%
    11:00 +17°C° 0.5 mm 2 mps 636 mmHg 79%
    12:00 +17°C° 0.5 mm 2 mps 636 mmHg 82%
    13:00 +16°C° 1.3 mm 2 mps 636 mmHg 85%
    14:00 +15°C° 1.3 mm 2 mps 636 mmHg 88%
    15:00 +15°C° 1.3 mm 2 mps 635 mmHg 91%
    16:00 +14°C° 1.8 mm 2 mps 635 mmHg 92%
    17:00 +14°C° 1.8 mm 2 mps 635 mmHg 93%
    18:00 +13°C° 1.8 mm 2 mps 635 mmHg 95%
    19:00 +13°C° 0.3 mm 2 mps 635 mmHg 96%
    20:00 +13°C° 0.3 mm 2 mps 635 mmHg 96%
    21:00 +12°C° 0.3 mm 2 mps 635 mmHg 97%
    22:00 +12°C° 0.4 mm 2 mps 635 mmHg 97%
    23:00 +12°C° 0.4 mm 2 mps 635 mmHg 97%

    Day after tomorrow, 30 May, Wednesday

    Time Temperature Precipitation Wind Pressure Humidity
    00:00 +12°C° 0.4 mm 2 mps 635 mmHg 97%
    01:00 +12°C° 0.4 mm 2 mps 635 mmHg 97%
    02:00 +12°C° 0.4 mm 2 mps 635 mmHg 97%
    03:00 +10°C° 0.4 mm 2 mps 635 mmHg 98%
    04:00 +10°C° 0.3 mm 2 mps 635 mmHg 97%
    05:00 +10°C° 0.3 mm 2 mps 635 mmHg 97%
    06:00 +10°C° 0.3 mm 2 mps 635 mmHg 96%
    07:00 +12°C° 0.2 mm 2 mps 635 mmHg 94%
    08:00 +12°C° 0.2 mm 2 mps 635 mmHg 91%
    09:00 +13°C° 0.2 mm 2 mps 636 mmHg 89%
    10:00 +13°C° 0.1 mm 2 mps 636 mmHg 86%
    11:00 +14°C° 0.1 mm 2 mps 636 mmHg 82%
    12:00 +14°C° 0.1 mm 3 mps 636 mmHg 79%
    13:00 +16°C° 0.3 mm 3 mps 636 mmHg 77%
    14:00 +16°C° 0.3 mm 3 mps 636 mmHg 76%
    15:00 +17°C° 0.3 mm 3 mps 636 mmHg 74%
    16:00 +16°C° 0.5 mm 2 mps 635 mmHg 78%
    17:00 +15°C° 0.5 mm 2 mps 635 mmHg 81%
    18:00 +15°C° 0.5 mm 2 mps 635 mmHg 85%
    19:00 +14°C° 0.3 mm 2 mps 635 mmHg 88%
    20:00 +13°C° 0.3 mm 2 mps 635 mmHg 91%
    21:00 +12°C° 0.3 mm 2 mps 635 mmHg 93%
    22:00 +12°C° 0.1 mm 1 mps 635 mmHg 93%
    23:00 +12°C° 0.1 mm 1 mps 635 mmHg 94%

    31 May, Thursday

    Time Temperature Precipitation Wind Pressure Humidity
    00:00 +11°C° 0.1 mm 1 mps 635 mmHg 94%
    01:00 +11°C° 0.1 mm 1 mps 634 mmHg 94%
    02:00 +11°C° 0.1 mm 1 mps 634 mmHg 94%
    03:00 +11°C° 0.1 mm 1 mps 633 mmHg 94%
    04:00 +12°C° 0 mm 1 mps 633 mmHg 91%
    05:00 +12°C° 0 mm 1 mps 633 mmHg 89%
    06:00 +13°C° 0 mm 1 mps 633 mmHg 87%
    07:00 +14°C° 0.1 mm 1 mps 634 mmHg 82%
    08:00 +16°C° 0.1 mm 1 mps 634 mmHg 77%
    09:00 +17°C° 0.1 mm 2 mps 634 mmHg 72%
    10:00 +18°C° 0.2 mm 2 mps 634 mmHg 69%
    11:00 +20°C° 0.2 mm 2 mps 634 mmHg 65%
    12:00 +21°C° 0.2 mm 3 mps 634 mmHg 62%
    13:00 +21°C° 1.4 mm 3 mps 633 mmHg 63%
    14:00 +21°C° 1.4 mm 3 mps 633 mmHg 65%
    15:00 +21°C° 1.4 mm 3 mps 632 mmHg 66%
    16:00 +20°C° 2 mm 3 mps 632 mmHg 71%
    17:00 +19°C° 2 mm 2 mps 632 mmHg 76%
    18:00 +18°C° 2 mm 2 mps 632 mmHg 81%
    19:00 +16°C° 0.4 mm 2 mps 632 mmHg 82%
    20:00 +15°C° 0.4 mm 1 mps 632 mmHg 83%
    21:00 +13°C° 0.4 mm 1 mps 632 mmHg 85%
    22:00 +13°C° 0.2 mm 1 mps 632 mmHg 85%
    23:00 +13°C° 0.2 mm 1 mps 632 mmHg 84%

    1 June, Friday

    Time Temperature Precipitation Wind Pressure Humidity
    00:00 +12°C° 0.2 mm 1 mps 632 mmHg 84%
    01:00 +12°C° 0.1 mm 2 mps 632 mmHg 84%
    02:00 +12°C° 0.1 mm 2 mps 632 mmHg 84%
    03:00 +12°C° 0.1 mm 2 mps 632 mmHg 85%
    04:00 +12°C° 0.1 mm 2 mps 632 mmHg 84%
    05:00 +13°C° 0.1 mm 2 mps 632 mmHg 84%
    06:00 +13°C° 0.1 mm 2 mps 632 mmHg 84%
    07:00 +15°C° 0 mm 2 mps 633 mmHg 77%
    08:00 +17°C° 0 mm 3 mps 633 mmHg 71%
    09:00 +19°C° 0 mm 3 mps 634 mmHg 64%
    10:00 +20°C° 0.1 mm 3 mps 634 mmHg 61%
    11:00 +21°C° 0.1 mm 4 mps 634 mmHg 58%
    12:00 +22°C° 0.1 mm 4 mps 634 mmHg 55%
    13:00 +22°C° 0.3 mm 4 mps 634 mmHg 54%
    14:00 +22°C° 0.3 mm 4 mps 634 mmHg 53%
    15:00 +23°C° 0.3 mm 4 mps 633 mmHg 52%
    16:00 +22°C° 0.6 mm 3 mps 633 mmHg 57%
    17:00 +21°C° 0.6 mm 2 mps 633 mmHg 62%
    18:00 +20°C° 0.6 mm 2 mps 633 mmHg 68%
    19:00 +18°C° 1 mm 2 mps 633 mmHg 71%
    20:00 +16°C° 1 mm 1 mps 633 mmHg 75%
    21:00 +14°C° 1 mm 1 mps 632 mmHg 79%
    22:00 +14°C° 0.2 mm 1 mps 632 mmHg 80%
    23:00 +13°C° 0.2 mm 1 mps 632 mmHg 80%

    2 June, Saturday

    Time Temperature Precipitation Wind Pressure Humidity
    00:00 +13°C° 0.2 mm 2 mps 632 mmHg 81%
    01:00 +12°C° 0 mm 2 mps 632 mmHg 81%
    02:00 +12°C° 0 mm 2 mps 632 mmHg 82%
    03:00 +12°C° 0 mm 2 mps 632 mmHg 82%
    04:00 +12°C° 0 mm 2 mps 632 mmHg 82%
    05:00 +13°C° 0 mm 2 mps 633 mmHg 81%
    06:00 +14°C° 0 mm 2 mps 633 mmHg 81%
    07:00 +15°C° 0 mm 2 mps 634 mmHg 74%
    08:00 +17°C° 0 mm 2 mps 634 mmHg 68%
    09:00 +19°C° 0 mm 2 mps 635 mmHg 61%
    10:00 +20°C° 0.5 mm 2 mps 635 mmHg 59%
    11:00 +21°C° 0.5 mm 2 mps 634 mmHg 58%
    12:00 +22°C° 0.5 mm 3 mps 634 mmHg 56%
    13:00 +22°C° 1.3 mm 3 mps 634 mmHg 57%
    14:00 +21°C° 1.3 mm 3 mps 634 mmHg 58%
    15:00 +21°C° 1.3 mm 3 mps 634 mmHg 59%
    16:00 +20°C° 1.2 mm 2 mps 634 mmHg 65%
    17:00 +20°C° 1.2 mm 2 mps 634 mmHg 71%
    18:00 +20°C° 1.2 mm 1 mps 634 mmHg 77%
    19:00 +18°C° 0.6 mm 1 mps 634 mmHg 80%
    20:00 +16°C° 0.6 mm 1 mps 634 mmHg 83%
    21:00 +14°C° 0.6 mm 1 mps 634 mmHg 87%
    22:00 +14°C° 0.3 mm 1 mps 634 mmHg 87%
    23:00 +13°C° 0.3 mm 1 mps 634 mmHg 88%
    Show more